Location: ????????
(52.2458°N, 54.3333°E)
Time: 08:42:58
(UTC+00:00)

Daily predictions for brighter satellites

Satellite Brightness Start Highest point End
(mag) Time Altitude Azimuth Time Altitude Azimuth Time Altitude Azimuth
Okean 1 Rocket 3.3 17:13:57 10° N 17:18:23 57° ENE 17:22:45 10° SSE
Okean 2 Rocket 3.9 17:14:24 10° NNW 17:18:44 52° W 17:22:59 10° S
STARLINK-1199 3.7 17:15:16 10° W 17:19:26 84° N 17:23:36 10° E
STARLINK-1102 3.8 17:15:48 10° WNW 17:19:53 58° SSW 17:23:57 10° SE
Resurs 01 Rocket 2.7 17:16:08 10° S 17:20:24 44° W 17:24:42 10° NNW
STARLINK-1191 3.0 17:18:03 10° W 17:21:10 75° N 17:24:16 10° E
STARLINK-1269 3.7 17:17:40 10° SW 17:21:45 58° SSE 17:25:50 10° ENE
STARLINK-1221 3.0 17:19:01 10° W 17:22:07 75° N 17:25:14 10° E
Cosmos 1850 Rocket 4.5 17:16:55 10° NNW 17:22:13 63° WSW 17:27:29 10° S
Cosmos 1805 4.0 17:18:48 10° N 17:22:31 38° ENE 17:26:12 10° SE
STARLINK-1222 3.0 17:19:52 10° W 17:22:58 76° N 17:26:05 10° E
STARLINK-1214 3.0 17:20:45 10° W 17:23:52 76° N 17:26:58 10° E
STARLINK-1210 3.7 17:20:14 10° W 17:24:23 83° N 17:28:34 10° E
STARLINK-1111 3.9 17:20:47 10° WNW 17:24:51 55° SSW 17:28:54 10° SE
SL-8 R/B 4.2 17:20:39 10° W 17:25:13 44° SSW 17:29:47 10° SE
STARLINK-1228 3.3 17:22:05 10° W 17:25:36 81° N 17:29:06 10° E
STARLINK-1200 3.6 17:22:37 10° WSW 17:26:42 61° SSE 17:30:49 10° ENE
Cosmos 1110 Rocket 4.4 17:23:22 10° S 17:28:14 42° ESE 17:33:06 10° NE
Cosmos 371 Rocket 3.5 17:24:20 10° SSW 17:29:12 83° WNW 17:34:08 10° NNE
STARLINK-1219 3.7 17:25:13 10° W 17:29:23 82° N 17:33:32 10° E
STARLINK-1073 4.0 17:25:46 10° WNW 17:29:49 52° SSW 17:33:51 10° SE
SPOT 1/Viking Rocket 3.6 17:25:01 10° SSE 17:30:11 85° ENE 17:35:22 10° NNW
Spot 2 Rocket 3.7 17:25:09 10° S 17:30:11 73° WSW 17:35:15 10° NNW
STARLINK-1235 3.1 17:27:30 10° W 17:30:45 80° N 17:33:59 10° E
Terra 2.5 17:27:02 10° SE 17:31:32 44° ENE 17:36:04 10° N
STARLINK-1192 3.6 17:27:35 10° WSW 17:31:41 64° SSE 17:35:48 10° ENE
Cosmos 2151 Rocket 4.4 17:29:01 10° NNW 17:33:26 53° W 17:37:50 10° S
STARLINK-1211 3.8 17:30:13 10° W 17:34:23 81° N 17:38:33 10° E
STARLINK-1121 4.0 17:30:45 10° WNW 17:34:46 50° SSW 17:38:47 10° SE
BREEZE M DEB (TANK) 3.6 17:31:31 10° SW 17:36:12 29° SSE 17:38:29 10° ESE
STARLINK-1244 3.6 17:32:32 10° WSW 17:36:39 67° SSE 17:40:46 10° ENE
SL-4 R/B 4.1 17:34:35 10° SSE 17:36:51 13° SE 17:39:07 10° ESE
CARTOSAT-1 3.7 17:33:56 10° SSE 17:38:13 69° ENE 17:42:32 10° N
STARLINK-1245 3.8 17:35:12 10° W 17:39:21 80° N 17:43:31 10° E
STARLINK-1106 4.1 17:35:46 10° WNW 17:39:46 47° SSW 17:43:41 10° SE
STARLINK-1138 3.6 17:37:30 10° WSW 17:41:37 70° SSE 17:45:46 10° ENE
EXPRESS MD2 4.1 17:38:47 10° SW 17:41:57 36° SE 17:47:42 10° E
USA 215 3.8 17:36:13 10° E 17:42:41 63° N 17:49:07 10° WNW
STARLINK-1233 3.8 17:40:09 10° W 17:44:18 80° N 17:48:28 10° E
STARLINK-1112 4.2 17:40:43 10° WNW 17:44:41 45° SSW 17:48:26 11° SE
NOSS 8 (E) 4.0 17:41:36 10° SW 17:44:43 77° SE 17:47:49 10° NE
Cosmos 1331 Rocket 4.2 17:40:08 10° S 17:45:06 52° ESE 17:50:09 10° NNE
ERBS 3.2 17:43:19 10° W 17:46:34 52° NNW 17:49:50 10° ENE
STARLINK-1143 3.5 17:42:26 10° WSW 17:46:35 73° SSE 17:50:43 10° ENE
Abrixas rocket 3.7 17:44:54 10° WSW 17:47:05 19° SSW 17:48:54 12° SSE
NOSS 2-2 (D) 3.8 17:44:00 10° S 17:47:18 35° ESE 17:51:00 10° ENE
CENTAUR R/B 3.4 17:39:42 10° NW 17:47:25 70° NE 17:56:06 10° ESE
STARLINK-1234 3.0 17:45:07 10° WNW 17:48:26 89° N 17:51:45 10° ESE
STARLINK-1204 3.8 17:45:09 10° W 17:49:18 79° N 17:53:28 10° E
STARLINK-1128 4.2 17:45:43 10° W 17:49:39 42° SSW 17:53:12 12° SE
ATLAS 3B R/B 3.6 17:44:03 10° NW 17:50:30 46° NNE 17:57:07 10° E
STARLINK-1241 3.5 17:47:27 10° WSW 17:51:36 76° SSE 17:55:44 10° ENE
NOSS 3-2 (C) 4.2 17:44:56 10° NW 17:52:13 77° NE 18:00:31 10° SE
Cosmos 1092 Rocket 4.3 17:46:51 10° SSE 17:52:45 51° E 17:58:41 10° NNE
STARLINK-1209 3.0 17:50:51 10° WNW 17:54:09 87° S 17:57:27 10° ESE
STARLINK-1238 3.8 17:50:09 10° W 17:54:18 79° N 17:58:28 10° E
STARLINK-1113 4.3 17:50:43 10° W 17:54:36 40° SSW 17:58:00 13° SE
ATLAS 5 CENTAUR R/B4.117:56:37ESE17:56:37ESE17:49:53S
Cosmos 1733 3.4 17:52:30 10° N 17:56:18 58° ENE 17:59:35 13° SSE
STARLINK-1239 3.5 17:52:24 10° WSW 17:56:33 78° SSE 18:00:42 10° ENE
Lacrosse 5 4.0 17:56:21 10° W 17:59:08 15° WSW 18:01:56 10° SSW
STARLINK-1201 3.8 17:55:08 10° W 17:59:18 79° N 18:03:27 10° E
STARLINK-1119 4.4 17:55:44 10° W 17:59:35 37° SSW 18:02:48 14° SSE
Cosmos 1437 Rocket 3.6 17:56:47 10° SSW 18:00:28 49° WNW 18:04:14 10° N
Cosmos 1544 Rocket 4.5 17:56:51 10° N 18:00:53 36° ENE 18:04:23 13° SE
Cosmos 304 Rocket 3.8 17:56:08 10° SSW 18:00:56 86° WNW 18:05:46 10° NNE
STARLINK-1240 3.5 17:57:21 10° WSW 18:01:31 81° SSE 18:05:40 10° ENE
Aureole 2 Rocket 2.4 17:59:13 10° SSW 18:02:17 67° WNW 18:05:13 10° NNE
STARLINK-1206 3.8 18:00:08 10° W 18:04:17 79° N 18:08:27 10° E
Cosmos 1378 3.1 18:00:48 10° S 18:04:29 73° E 18:08:12 10° NNE
STARLINK-1114 4.5 18:00:43 10° W 18:04:31 35° SSW 18:07:34 14° SSE
NOSS 2-2 (E) 3.2 18:00:57 10° SSW 18:04:31 61° SE 18:08:43 10° NE
STARLINK-1203 3.6 18:01:45 10° WSW 18:05:57 83° SSE 18:10:11 10° ENE
Cosmos 1271 Rocket 4.5 18:04:08 12° SE 18:06:23 19° E 18:09:09 10° NE
STARLINK-1216 3.6 18:02:19 10° WSW 18:06:29 83° SSE 18:10:39 10° ENE
STARLINK-1205 3.7 18:05:06 10° W 18:09:16 79° N 18:13:26 10° E
ATLAS CENTAUR R/B 3.0 18:08:01 10° NW 18:09:28 19° N 18:11:00 10° NE
Cosmos 1242 Rocket 3.9 18:07:27 15° SE 18:09:42 25° E 18:12:47 10° NE
Cosmos 1867 4.1 18:05:56 10° NW 18:11:20 56° NE 18:16:42 10° ESE
STARLINK-1237 3.6 18:07:18 10° WSW 18:11:28 86° SSE 18:15:38 10° ENE
MTI 4.3 18:08:37 10° NNE 18:11:36 38° E 18:13:43 16° SSE
STARLINK-1218 3.7 18:10:06 10° W 18:14:16 79° N 18:18:26 10° E
Cosmos 2297 3.8 18:09:13 10° SSW 18:14:55 83° WNW 18:20:42 10° NNE
Cosmos 1378 Rocket 4.2 18:10:49 10° SSW 18:15:10 58° WNW 18:19:30 10° N
Cosmos 1943 Rocket 2.3 18:10:16 10° S 18:15:38 53° ESE 18:21:05 10° NE
Cosmos 1707 4.4 18:14:17 13° SE 18:16:27 20° E 18:19:17 10° NE
STARLINK-1202 3.6 18:12:17 10° WSW 18:16:27 88° SSE 18:20:37 10° ENE
Cosmos 2082 Rocket 4.2 18:13:37 10° NW 18:17:42 20° W 18:21:46 10° SSW
Cosmos 1766 3.6 18:14:32 10° NNW 18:18:30 65° W 18:22:01 13° S
STARLINK-1254 3.7 18:15:05 10° W 18:19:15 80° N 18:23:25 10° E
SL-27 R/B 2.4 18:16:09 10° NNW 18:19:47 89° E 18:22:21 18° SSE
Cosmos 1726 4.0 18:18:23 10° NNE 18:21:15 20° ENE 18:23:50 11° ESE
SeaSat 1 3.9 18:19:01 10° ENE 18:22:41 20° ESE 18:25:02 15° SE
Aureole 3 Rocket 4.4 18:17:38 10° N 18:23:31 65° ENE 18:30:29 15° SSE
STARLINK-1231 3.7 18:20:03 10° W 18:24:13 81° N 18:28:23 10° E
STARLINK-1246 3.6 18:22:15 10° WSW 18:26:25 88° NNW 18:30:36 10° E
COSMOS 2487 4.1 18:24:26 10° N 18:27:22 25° NE 18:30:03 11° ESE
NOSS 2-2 (C) 3.1 18:25:28 10° SW 18:29:04 80° SE 18:33:17 10° NE
STARLINK-1232 3.7 18:25:03 10° W 18:29:13 82° N 18:33:23 10° E
Cosmos 2369 Rocket 2.4 18:25:49 10° S 18:31:16 51° ESE 18:36:45 10° NE
STARLINK-1224 3.6 18:27:14 10° W 18:31:24 86° NNW 18:35:34 10° E
EO 1 Del DPAF 4.5 18:29:21 10° NE 18:32:36 26° E 18:34:28 18° SE
ATLAS 2AS CENTAUR R/B 3.6 18:25:57 10° S 18:33:05 38° ESE 18:40:12 10° NE
NOSS 3-2 (A) 4.3 18:26:21 10° NW 18:33:36 59° SW 18:40:26 15° SSE
STARLINK-1208 3.7 18:30:02 10° W 18:34:11 83° N 18:38:21 10° E
Cosmos 1461 3.8 18:30:13 10° WSW 18:34:22 53° NW 18:38:46 10° NE
Cosmos 1975 Rocket 3.0 18:30:22 12° S 18:34:26 85° ESE 18:38:52 10° NNE
Cosmos 292 Rocket 4.2 18:31:27 15° S 18:35:11 45° ESE 18:39:50 10° NE
STARLINK-1225 3.6 18:32:13 10° W 18:36:23 85° N 18:40:34 10° E
Cosmos 2026 Rocket 4.0 18:31:20 11° S 18:37:20 78° E 18:43:44 10° NNE
Cosmos 1553 Rocket 4.1 18:31:11 10° N 18:37:30 69° ENE 18:42:25 17° SSE
STARLINK-1271 3.7 18:35:02 10° W 18:39:12 84° N 18:43:22 10° E
SPOT 5 4.0 18:35:06 10° SSW 18:40:05 42° W 18:45:12 10° NNW
STARLINK-1230 3.7 18:37:12 10° W 18:41:22 84° N 18:45:32 10° E
Thor Agena Rocket 4.1 18:37:20 10° NNE 18:42:25 43° E 18:46:01 18° SSE
STARLINK-1154 3.6 18:40:01 10° W 18:44:11 85° N 18:48:20 10° E
ERS-1 Rocket 4.3 18:40:06 10° SSW 18:44:37 33° W 18:49:11 10° NNW
STARLINK-1212 2.8 18:41:32 10° WNW 18:44:37 62° SSW 18:46:32 20° SE
STARLINK-1105 2.8 18:42:00 10° WNW 18:45:05 62° SSW 18:46:58 21° SE
USA 238 DEB 4.3 18:38:27 10° NW 18:45:20 50° WSW 18:51:00 16° SSE
USA 238 4.3 18:38:33 10° NW 18:45:27 50° WSW 18:51:07 16° SSE
Cosmos 1656 Rocket 4.4 18:42:11 17° SSE 18:45:53 36° ESE 18:50:55 10° NE
STARLINK-1247 2.9 18:42:53 10° WNW 18:45:59 61° SSW 18:47:52 21° SE
STARLINK-1243 3.7 18:42:12 10° W 18:46:22 82° N 18:50:32 10° E
STARLINK-1227 2.9 18:43:23 10° WNW 18:46:28 61° SSW 18:48:18 21° SE
STARLINK-1226 2.9 18:44:14 10° WNW 18:47:19 60° SSW 18:49:09 22° SE
STARLINK-1215 2.9 18:45:08 10° WNW 18:48:13 60° SSW 18:50:02 22° SE
ATLAS CENTAUR R/B 2.9 18:47:21 19° SE 18:48:27 20° ESE 18:51:34 10° ENE
Cosmos 1340 Rocket 3.8 18:44:53 10° N 18:48:42 38° ENE 18:51:20 18° SE
STARLINK-1197 3.6 18:44:58 10° W 18:49:08 87° N 18:53:18 10° E
Cosmos 1655 Rocket 4.5 18:45:11 17° SSE 18:49:43 47° E 18:55:41 10° NNE
STARLINK-1217 2.9 18:46:58 10° WNW 18:50:02 58° SSW 18:51:46 23° SE
STARLINK-1229 2.9 18:47:52 10° WNW 18:50:57 58° SSW 18:52:39 23° SE
STARLINK-1236 3.7 18:47:10 10° W 18:51:20 81° N 18:55:30 10° E
STARLINK-1270 2.9 18:48:45 10° W 18:51:50 57° SSW 18:53:31 23° SE
Cosmos 1025 Rocket 3.4 18:49:14 20° SSE 18:51:51 47° E 18:56:00 10° NNE
STARLINK-1189 2.9 18:50:33 10° W 18:53:38 56° SSW 18:55:14 24° SE
Cosmos 968 Rocket 3.5 18:48:45 10° NNW 18:53:55 74° WSW 18:57:31 20° SSE
Okean 2 4.0 18:49:52 10° SSW 18:53:56 55° WNW 18:58:03 10° N
STARLINK-1198 3.6 18:49:57 10° W 18:54:07 89° N 18:58:17 10° ESE
APEX 4.4 18:48:22 11° SSW 18:54:29 57° ESE 18:59:36 10° NE
STARLINK-1188 3.0 18:51:28 10° W 18:54:33 55° SSW 18:56:07 25° SE
STARLINK-1187 3.0 18:52:32 10° W 18:55:33 50° SSW 18:56:57 26° SE
Cosmos 1953 2.7 18:53:01 10° N 18:56:56 51° ENE 18:59:18 22° SE
STARLINK-1191 3.0 18:53:54 10° W 18:56:57 53° SSW 18:58:25 26° SE
STARLINK-1221 3.0 18:54:52 10° W 18:57:54 53° SSW 18:59:20 26° SE
Cosmos 1470 2.8 18:54:52 10° NNW 18:58:45 72° W 19:01:10 22° S
STARLINK-1222 3.0 18:55:43 10° W 18:58:45 52° SSW 19:00:09 27° SE
STARLINK-1199 3.6 18:54:57 10° WNW 18:59:07 89° SSW 19:03:17 10° ESE
STARLINK-1214 3.0 18:56:37 10° W 18:59:39 52° SSW 19:01:01 27° SE
STARLINK-1269 3.7 18:57:09 10° W 19:01:19 80° N 19:05:29 10° E
Cosmos 1455 Rocket 3.8 18:57:50 10° NNW 19:02:00 46° W 19:05:10 16° SSW
STARLINK-1228 3.5 18:59:21 10° W 19:02:43 45° SSW 19:04:17 26° SSE
STARLINK-1210 3.5 18:59:55 10° WNW 19:04:06 87° S 19:08:15 10° ESE
STARLINK-1200 3.7 19:02:07 10° W 19:06:17 79° N 19:10:27 10° E
STARLINK-1235 3.4 19:03:51 10° W 19:06:56 42° SSW 19:08:02 30° SSE
Cosmos 2266 Rocket 4.4 19:04:36 19° SSE 19:08:42 47° E 19:14:26 10° NNE
STARLINK-1219 3.5 19:04:54 10° WNW 19:09:04 85° SSW 19:13:13 10° ESE
Terra 3.3 19:05:29 11° SSW 19:09:27 29° W 19:13:37 10° NNW
STARLINK-1192 3.7 19:07:07 10° W 19:11:17 79° N 19:15:27 10° E
Cosmos 1758 3.6 19:07:24 10° NNW 19:11:25 62° W 19:13:55 22° S
Meteor 2-8 Rocket 4.5 19:05:22 10° N 19:11:33 89° E 19:16:00 20° S
Cosmos 2228 4.1 19:08:24 10° N 19:12:17 33° ENE 19:14:57 17° SE
Cosmos 1503 Rocket 4.1 19:08:05 10° NNW 19:13:23 71° WSW 19:16:55 22° S
STARLINK-1211 3.5 19:09:54 10° WNW 19:14:04 83° SSW 19:18:13 10° ESE
SL-4 R/B 2.7 19:11:08 10° SW 19:15:40 42° SSE 19:20:14 10° E
STARLINK-1244 3.7 19:12:06 10° W 19:16:16 79° N 19:20:25 10° E
Cosmos 1842 4.4 19:13:36 11° SW 19:17:09 39° WNW 19:20:50 10° N
STARLINK-1245 3.5 19:14:52 10° WNW 19:19:01 80° SSW 19:23:10 10° ESE
Cosmos 2263 4.1 19:15:31 12° SSW 19:20:46 83° ESE 19:26:26 10° NNE
SL-4 R/B 0.9 19:20:37 43° ESE 19:20:55 48° ENE 19:23:02 10° N
STARLINK-1138 3.7 19:17:05 10° W 19:21:15 79° N 19:25:25 10° E
ERBS 4.0 19:20:13 10° WNW 19:23:18 34° N 19:26:24 10° ENE
STARLINK-1233 3.5 19:19:49 10° WNW 19:23:58 78° SSW 19:28:02 10° ESE
STARLINK-1234 3.8 19:21:38 10° W 19:24:38 32° SSW 19:25:08 30° S
USA 215 3.2 19:19:02 10° ESE 19:25:37 82° SSW 19:32:12 10° WNW
STARLINK-1143 3.7 19:22:03 10° W 19:26:13 79° N 19:30:23 10° E
SJ 16-02 3.8 19:24:57 10° N 19:27:55 17° NE 19:30:53 10° E
STARLINK-1204 3.5 19:24:48 10° WNW 19:28:58 75° SSW 19:32:49 12° ESE
STARLINK-1209 4.0 19:27:30 10° W 19:30:24 28° SSW 19:30:41 28° SSW
COSMOS 2455 3.2 19:26:39 20° S 19:30:32 48° ESE 19:36:19 10° NE
STARLINK-1241 3.7 19:27:05 10° W 19:31:14 79° N 19:35:24 10° E
Cosmos 2219 4.4 19:27:12 10° NNW 19:32:32 39° NE 19:37:48 10° ESE
Cosmos 1354 Rocket 4.3 19:27:23 10° NNW 19:32:35 57° WSW 19:35:49 23° S
STARLINK-1238 3.5 19:29:48 10° WNW 19:33:56 72° SSW 19:37:37 13° ESE
Cosmos 1536 Rocket 3.6 19:31:28 22° SSW 19:34:16 78° WNW 19:38:40 10° N
STARLINK-1239 3.7 19:32:03 10° W 19:36:12 80° N 19:40:22 10° E
Cosmos 2297 Rocket 3.5 19:31:46 10° NNW 19:37:00 36° NE 19:42:11 10° ESE
Timation 2 Rocket 4.1 19:31:41 10° NNW 19:38:06 74° NE 19:43:01 17° SE
CENTAUR R/B 3.7 19:30:35 10° NW 19:38:09 47° WSW 19:43:58 20° S
Spot 4 4.3 19:35:15 22° S 19:38:14 54° W 19:43:01 10° NNW
STARLINK-1201 3.5 19:34:47 10° WNW 19:38:55 69° SSW 19:42:24 14° ESE
Cosmos 1674 3.3 19:38:43 27° SSE 19:40:17 43° E 19:43:55 10° NNE
STARLINK-1240 3.7 19:37:01 10° W 19:41:11 80° N 19:45:21 10° E
ATLAS 3B R/B 2.7 19:34:51 10° NW 19:41:36 70° SW 19:46:44 19° SSE
Cosmos 1271 Rocket 3.5 19:39:15 17° SW 19:42:02 47° WNW 19:45:52 10° N
STARLINK-1206 3.5 19:39:47 10° WNW 19:43:54 66° SSW 19:47:11 15° ESE
Cosmos 1242 Rocket 4.2 19:41:26 11° SW 19:44:29 30° WNW 19:47:48 10° N
STARLINK-1203 3.7 19:41:38 10° W 19:45:52 81° N 19:50:05 10° E
STARLINK-1216 3.7 19:42:00 10° W 19:46:10 81° N 19:50:19 10° E
Cosmos 1174 3.6 19:46:34 33° S 19:47:44 53° ESE 19:51:31 10° NE
STARLINK-1205 3.6 19:44:45 10° WNW 19:48:52 63° SSW 19:51:57 17° SE
Meteor 1-16 Rocket 4.3 19:45:01 10° NNW 19:50:32 67° W 19:53:53 23° S
Helios 1A 3.2 19:48:22 25° SSE 19:50:45 67° ENE 19:54:54 10° N
STARLINK-60 2.8 19:47:58 12° WSW 19:50:46 61° SSE 19:53:56 10° ENE
STARLINK-1237 3.7 19:46:59 10° W 19:51:09 82° N 19:55:19 10° E
Lacrosse 4 Rocket 3.8 19:48:25 10° NNW 19:51:54 22° NNE 19:55:17 10° E
Cosmos 1707 3.6 19:49:26 18° SW 19:52:02 44° WNW 19:55:47 10° N
Meteor 2-5 Rocket 4.3 19:49:17 22° SSE 19:52:33 45° E 19:57:54 10° NNE
STARLINK-1218 3.6 19:49:45 10° WNW 19:53:50 60° SSW 19:56:44 18° SE
Cosmos 2058 Rocket 3.8 19:50:25 10° N 19:54:44 47° ENE 19:57:26 21° SE
Cosmos 1867 4.4 19:49:48 10° NW 19:54:48 37° WSW 19:57:28 23° SSW
NOSS 3-4 (A) 3.4 19:49:11 11° SW 19:55:03 80° SE 20:01:32 10° NE
NOSS 3-4 (C) 3.4 19:49:19 11° SW 19:55:09 79° SE 20:01:39 10° NE
ALOS 2 2.7 19:53:01 27° S 19:55:21 67° WSW 19:59:46 10° NNW
STARLINK-1202 3.6 19:51:58 10° W 19:56:08 83° N 20:00:18 10° E
Cosmos 1726 3.0 19:53:07 10° NNW 19:56:38 40° W 19:58:20 24° SSW
STARLINK-1254 3.6 19:54:43 10° WNW 19:58:48 57° SSW 20:01:31 20° SE
Cosmos 1943 Rocket 3.6 19:54:29 10° WSW 19:59:37 37° NW 20:04:50 10° NNE
Cosmos 1992 Rocket 4.4 19:56:02 13° SW 20:00:38 61° WNW 20:05:50 10° NNE
SeaSat 1 2.5 19:55:45 10° NNE 20:00:43 79° NW 20:04:48 15° SW
COSMOS 2487 3.5 19:59:21 10° NW 20:02:28 31° WSW 20:03:33 26° SW
Cosmos 2315 Rocket 4.0 19:56:59 10° NNW 20:03:13 79° W 20:07:17 23° S
STARLINK-1231 3.7 19:59:41 10° WNW 20:03:45 55° SSW 20:06:17 21° SE
Cosmos 2098 Rocket 4.4 19:59:14 21° S 20:04:20 81° E 20:11:50 10° NNE
Cosmos 1606 Rocket 3.5 20:00:48 10° NNW 20:05:08 78° W 20:07:22 28° S
STARLINK-1246 3.6 20:01:57 10° W 20:06:07 86° NNE 20:10:17 10° E
BREEZE-M DEB 4.1 20:03:35 10° WSW 20:07:24 71° S 20:21:47 10° E
STARLINK-1232 3.7 20:04:42 10° WNW 20:08:45 52° SSW 20:11:05 23° SE
SL-14 R/B 4.2 20:08:19 24° SE 20:09:57 35° E 20:13:29 10° NNE
STARLINK-1224 3.6 20:06:55 10° W 20:11:06 88° NNE 20:15:15 10° E
STARLINK-1208 3.8 20:09:39 10° WNW 20:13:40 49° SSW 20:15:50 24° SE
Cosmos 2227 Rocket 2.9 20:08:31 10° NNW 20:14:06 52° NE 20:19:38 10° SE
FALCON 9 DEB 3.6 20:13:40 37° S 20:14:07 39° SSE 20:17:22 10° E
Cosmos 2369 Rocket 3.5 20:10:15 10° WSW 20:15:31 38° NW 20:20:47 10° NNE
STARLINK-1225 3.6 20:11:55 10° W 20:16:05 90° E 20:20:15 10° ESE
STARLINK-1271 3.9 20:14:41 10° WNW 20:18:40 46° SSW 20:20:39 26° SSE
RESURS DK-1 2.5 20:18:05 30° S 20:19:55 58° ESE 20:24:01 10° NE
STARLINK-29 2.9 20:19:19 30° SW 20:20:38 58° SSE 20:23:47 10° ENE
STARLINK-1230 3.5 20:16:53 10° WNW 20:21:03 88° SSW 20:25:13 10° ESE
STARLINK-1373 4.4 20:20:59 27° SE 20:21:04 27° SE 20:24:20 10° E
Aureole 3 4.1 20:18:30 10° NNW 20:21:20 27° W 20:22:18 22° WSW
STARLINK-1365 4.4 20:21:56 28° SSE 20:22:06 28° SE 20:25:25 10° E
Cosmos 2084 3.9 20:20:36 28° S 20:22:29 45° SE 20:26:46 10° NE
STARLINK-1154 3.9 20:19:40 10° WNW 20:23:37 44° SSW 20:25:26 27° SSE
ATLAS 2AS CENTAUR R/B 3.2 20:15:38 10° SW 20:23:41 78° NW 20:31:36 10° NE
STARLINK-1390 4.3 20:24:27 28° SSE 20:24:38 28° SE 20:27:57 10° E
Cosmos 1340 Rocket 4.5 20:21:41 10° NW 20:24:59 24° W 20:26:55 17° SW
Okean 1-7 Rocket 3.8 20:22:47 27° SSE 20:25:08 62° E 20:29:38 10° NNE
STARLINK-1243 3.5 20:21:53 10° WNW 20:26:03 86° SSW 20:30:12 10° ESE
ATLAS CENTAUR R/B 1.6 20:23:28 15° SW 20:27:02 71° NW 20:31:05 10° NE
Cosmos 1626 2.4 20:26:56 31° SSE 20:28:29 57° E 20:32:09 10° NNE
STARLINK-1197 4.0 20:24:38 10° W 20:28:33 41° SSW 20:30:11 28° SSE
Cosmos 1656 Rocket 4.4 20:23:53 10° SW 20:29:21 50° NW 20:34:45 10° NNE
Cosmos 1908 4.1 20:27:07 10° NNW 20:30:38 36° W 20:32:14 25° SW
STARLINK-1236 3.5 20:26:51 10° WNW 20:31:01 84° SSW 20:35:10 10° ESE
EO 1 Delta rocket 4.1 20:25:15 10° NNE 20:31:12 80° E 20:34:11 25° S
Cosmos 2292 Rocket 4.3 20:29:59 18° SW 20:31:55 30° WNW 20:34:45 10° N
Cosmos 1953 4.4 20:30:16 10° NW 20:32:58 18° W 20:35:00 13° WSW
Nadezhda 1 Rocket 4.4 20:27:18 10° N 20:33:27 60° ENE 20:38:19 17° SSE
STARLINK-1198 4.1 20:29:37 10° W 20:33:30 39° SSW 20:34:58 29° SSE
STARLINK-1199 4.2 20:34:38 10° W 20:38:29 37° SSW 20:39:46 29° S
Landsat 4 3.6 20:35:34 10° NNE 20:39:17 83° WNW 20:41:02 30° SSW
STARLINK-1269 3.5 20:36:49 10° WNW 20:40:58 79° SSW 20:45:07 10° ESE
Cosmos 1809 Rocket 4.5 20:37:08 22° SSW 20:41:17 82° WNW 20:47:32 10° N
STARLINK-1210 4.2 20:39:38 10° W 20:43:25 35° SSW 20:44:32 29° S
STARLINK-1200 3.5 20:41:47 10° WNW 20:45:56 76° SSW 20:50:04 10° ESE
BREEZE-M DEB (TANK) 2.5 20:46:59 27° SE 20:46:59 27° SE 20:48:32 10° E
STARLINK-1219 4.3 20:44:37 10° W 20:48:22 33° SW 20:49:18 29° S
Cosmos 1356 Rocket 3.4 20:44:36 10° NNW 20:48:49 82° ENE 20:51:14 25° SSE
Cosmos 2228 4.2 20:46:04 10° NNW 20:49:46 30° W 20:51:47 20° SW
Cosmos 1726 Rocket 4.5 20:46:23 10° NNW 20:50:20 36° W 20:52:25 22° SW
Cosmos 1892 Rocket 3.7 20:47:56 25° SSW 20:50:23 65° WNW 20:54:45 10° N
STARLINK-1192 3.5 20:46:47 10° WNW 20:50:55 73° SSW 20:55:03 10° ESE
ATLAS CENTAUR R/B 1.0 20:49:20 10° WNW 20:51:32 59° SSW 20:55:39 10° SE
STARLINK-1211 4.4 20:49:39 10° W 20:53:20 31° SW 20:54:05 29° SSW
CZ-4C R/B 3.5 20:51:11 17° SSE 20:53:38 24° ESE 20:58:12 10° ENE
Meteor 1-24 Rocket 3.6 20:50:54 24° SSW 20:54:18 83° WNW 20:59:51 10° NNE
SL-4 R/B 2.3 20:50:20 10° WSW 20:55:12 80° S 20:59:59 10° E
STARLINK-1244 3.5 20:51:45 10° WNW 20:55:54 70° SSW 21:00:01 10° ESE
STARLINK-52 2.8 20:54:06 17° WSW 20:56:26 78° SSE 20:59:40 10° ENE
Cosmos 2292 4.3 20:53:08 10° NNW 20:56:42 78° W 20:57:54 35° S
Cosmos 1300 3.0 20:53:12 10° NNW 20:56:57 54° W 20:58:37 29° SSW
Cosmos 921 Rocket 3.0 20:55:05 26° SSW 20:57:28 85° WNW 21:01:52 10° NNE
STARLINK-1245 4.5 20:54:39 10° W 20:58:16 29° SW 20:58:51 28° SSW
STARLINK-1338 3.7 20:58:26 30° SSW 20:59:47 44° SSE 21:03:24 10° E
ERBS 2.7 20:56:41 10° WNW 20:59:59 63° NNE 21:03:19 10° ESE
STARLINK-1320 3.2 20:59:36 39° S 21:00:09 44° SSE 21:03:09 10° E
STARLINK-1322 3.2 20:59:54 39° S 21:00:27 44° SSE 21:03:27 10° E
Meteor 2-1 Rocket 4.3 20:55:00 10° N 21:00:33 74° ENE 21:04:50 17° SSE
Resurs 1-4 Rocket 3.9 20:56:38 10° NE 21:00:43 22° E 21:04:46 10° SE
STARLINK-1324 3.2 21:00:15 39° S 21:00:49 44° SSE 21:03:49 10° E
STARLINK-1138 3.5 20:56:44 10° WNW 21:00:52 67° SSW 21:04:58 10° ESE
STARLINK-1294 3.2 21:00:32 39° S 21:01:07 45° SSE 21:04:09 10° E
STARLINK-1261 3.2 21:00:51 39° S 21:01:27 45° SSE 21:04:28 10° E
STARLINK-1325 3.2 21:01:12 39° S 21:01:49 45° SSE 21:04:49 10° E
STARLINK-1333 3.2 21:01:34 39° S 21:02:11 45° SSE 21:05:12 10° E
STARLINK-1334 3.1 21:01:52 38° SSW 21:02:30 45° SSE 21:05:31 10° E
STARLINK-1326 3.1 21:02:11 38° SSW 21:02:50 46° SSE 21:05:52 10° E
STARLINK-1323 3.1 21:02:29 38° SSW 21:03:09 46° SSE 21:06:11 10° E
STARLINK-1349 3.1 21:02:50 38° SSW 21:03:30 46° SSE 21:06:32 10° E
STARLINK-1336 3.1 21:03:09 38° SSW 21:03:51 46° SSE 21:06:52 10° E
STARLINK-1331 3.1 21:03:29 38° SSW 21:04:11 46° SSE 21:07:12 10° E
STARLINK-1344 3.1 21:03:48 38° SSW 21:04:30 47° SSE 21:07:31 10° E
STARLINK-1343 3.1 21:04:07 38° SSW 21:04:50 47° SSE 21:07:52 10° E
STARLINK-1346 3.1 21:04:24 37° SSW 21:05:11 47° SSE 21:08:14 10° E
STARLINK-1328 3.1 21:04:47 37° SSW 21:05:31 47° SSE 21:08:33 10° E
STARLINK-1143 3.5 21:01:42 10° WNW 21:05:49 64° SSW 21:09:55 10° ESE
STARLINK-1354 3.1 21:05:07 37° SSW 21:05:51 47° SSE 21:08:53 10° E
STARLINK-1347 3.1 21:05:26 37° SSW 21:06:12 48° SSE 21:09:14 10° E
STARLINK-1371 3.6 21:04:48 28° SSW 21:06:21 47° SSE 21:10:00 10° E
STARLINK-1357 3.1 21:05:46 37° SSW 21:06:33 48° SSE 21:09:35 10° E
STARLINK-1335 3.1 21:06:06 37° SSW 21:06:53 48° SSE 21:09:55 10° E
SJ 16-02 1.3 21:02:42 10° NNW 21:07:11 88° WSW 21:10:13 20° SSE
STARLINK-1327 3.1 21:06:25 37° SSW 21:07:12 48° SSE 21:10:14 10° E
Cosmos 220 Rocket 4.0 21:04:54 25° SSW 21:07:29 84° WNW 21:11:59 10° NNE
STARLINK-1340 3.1 21:06:45 37° SSW 21:07:34 48° SSE 21:10:36 10° E
Cosmos 1980 Rocket 4.2 21:04:07 10° SE 21:07:39 17° E 21:11:12 10° ENE
STARLINK-1356 3.1 21:07:04 37° SSW 21:07:54 49° SSE 21:10:55 10° E
STARLINK-1345 3.1 21:07:22 36° SSW 21:08:12 49° SSE 21:11:15 10° E
STARLINK-1355 3.0 21:07:41 36° SSW 21:08:32 49° SSE 21:11:35 10° E
STARLINK-1321 3.0 21:08:03 36° SSW 21:08:55 49° SSE 21:11:57 10° E
Cosmos 1437 2.6 21:08:05 35° SSW 21:09:09 67° WNW 21:12:10 10° N
USA 215 3.9 21:05:39 20° S 21:09:15 33° SW 21:15:04 10° WNW
STARLINK-1358 3.0 21:08:22 36° SSW 21:09:15 50° SSE 21:12:18 10° E
STARLINK-1332 3.0 21:08:41 36° SSW 21:09:34 50° SSE 21:12:37 10° E
STARLINK-1341 3.6 21:07:59 27° SW 21:09:40 49° SSE 21:13:19 10° ENE
STARLINK-1348 3.0 21:08:59 36° SSW 21:09:53 50° SSE 21:12:55 10° E
STARLINK-1330 3.0 21:09:21 36° SSW 21:10:15 50° SSE 21:13:17 10° E
STARLINK-1363 3.0 21:09:41 36° SSW 21:10:35 50° SSE 21:13:38 10° E
STARLINK-1241 3.6 21:06:43 10° WNW 21:10:49 61° SSW 21:14:54 10° ESE
STARLINK-1337 3.0 21:10:01 35° SSW 21:10:56 51° SSE 21:13:58 10° E
STARLINK-1342 3.0 21:10:18 35° SSW 21:11:15 51° SSE 21:14:18 10° E
Helios 1B rocket 2.4 21:07:21 10° NNE 21:11:31 83° WNW 21:13:50 25° SSW
STARLINK-1364 3.0 21:10:39 35° SSW 21:11:37 51° SSE 21:14:40 10° E
STARLINK-1376 3.0 21:10:58 35° SSW 21:11:56 51° SSE 21:14:59 10° E
STARLINK-1360 3.0 21:11:17 35° SSW 21:12:16 52° SSE 21:15:20 10° E
STARLINK-1361 3.0 21:11:37 34° SSW 21:12:36 52° SSE 21:15:40 10° E
STARLINK-1367 3.0 21:11:53 34° SSW 21:12:56 52° SSE 21:16:01 10° E
STARLINK-1374 3.5 21:11:10 26° SW 21:12:59 51° SSE 21:16:39 10° ENE
STARLINK-1366 3.0 21:12:16 34° SSW 21:13:17 52° SSE 21:16:21 10° E
STARLINK-1339 3.5 21:11:49 28° SW 21:13:25 50° SSE 21:16:56 10° ENE
MOZ.5/SAFIR/RUBIN 5/SL-8 4.5 21:09:57 11° SE 21:14:13 51° ENE 21:18:43 10° N
CZ-2D R/B 3.6 21:09:55 10° NE 21:14:18 26° E 21:18:32 10° SSE
Cosmos 1745 Rocket 4.0 21:10:53 21° S 21:15:10 84° E 21:21:20 10° NNE
STARLINK-1239 3.6 21:11:41 10° WNW 21:15:47 58° SSW 21:19:51 10° SE
COSMOS 2455 3.7 21:10:45 10° WSW 21:16:33 48° NW 21:22:24 10° NNE
Cosmos 2219 3.5 21:11:24 10° NW 21:16:51 49° WSW 21:20:24 21° S
GEOS 3 Rocket 3.7 21:13:49 10° SE 21:19:03 85° NE 21:24:24 10° NW
STARLINK-1377 3.5 21:17:37 24° SW 21:19:40 55° SSE 21:23:23 10° ENE
STARLINK-1240 3.6 21:16:39 10° WNW 21:20:44 56° SSW 21:24:46 10° SE
Cosmos 2297 Rocket 2.4 21:15:48 10° NW 21:21:19 55° WSW 21:25:14 19° S
BREEZE-M R/B 3.4 21:15:46 10° SW 21:21:36 42° SSE 21:24:48 10° E
STARLINK-1353 3.4 21:20:52 22° SW 21:23:03 57° SSE 21:26:47 10° ENE
Cosmos 2263 Rocket 3.9 21:20:21 10° NNW 21:25:27 33° NE 21:30:30 10° ESE
STARLINK-1203 3.7 21:21:30 10° WNW 21:25:36 53° SSW 21:29:42 10° SE
STARLINK-1216 3.7 21:21:38 10° WNW 21:25:40 53° SSW 21:29:43 10° SE
STARLINK-1375 3.4 21:24:08 21° SW 21:26:27 59° SSE 21:30:11 10° ENE
STARLINK-60 3.1 21:23:42 10° W 21:26:54 75° N 21:30:06 10° E
PSLV R/B 3.9 21:22:48 10° N 21:27:18 61° WNW 21:30:06 21° SW
Cosmos 468 Rocket 4.2 21:25:23 21° S 21:28:43 58° ESE 21:33:46 10° NNE
Meteor 2-10 Rocket 3.5 21:24:15 10° NNW 21:29:32 90° N 21:33:33 17° SSE
STARLINK-1350 3.4 21:27:24 20° SW 21:29:50 61° SSE 21:33:35 10° ENE
STARLINK-1352 3.3 21:28:04 21° SW 21:30:19 61° SSE 21:33:55 10° ENE
STARLINK-1237 3.7 21:26:37 10° WNW 21:30:39 50° SSW 21:34:40 10° SE
Lacrosse 4 Rocket 1.4 21:26:47 10° NW 21:31:10 86° SW 21:35:24 10° SSE
ATLAS 3B R/B 4.2 21:26:52 10° WNW 21:31:13 18° WSW 21:33:56 14° SW
Cosmos 2082 3.6 21:25:33 10° NNW 21:31:15 82° WSW 21:36:53 10° SSE
Cosmos 1937 Rocket 3.5 21:27:18 10° NNW 21:32:35 87° WSW 21:37:33 12° SSE
Cosmos 1898 Rocket 3.6 21:27:53 10° NNW 21:33:12 66° WSW 21:37:21 16° S
Cosmos 2181 Rocket 4.4 21:28:22 10° N 21:34:49 69° ENE 21:41:15 10° SSE
Cosmos 1455 2.1 21:31:47 10° N 21:35:33 88° ENE 21:38:01 20° S
STARLINK-1202 3.8 21:31:37 10° WNW 21:35:37 47° SSW 21:39:36 10° SE
STARLINK-1368 3.3 21:34:00 18° WSW 21:36:43 66° SSE 21:40:29 10° ENE
Cosmos 1626 Rocket 3.8 21:34:44 22° SSW 21:37:23 60° WNW 21:41:44 10° N
Meteor 1-29 3.2 21:35:03 10° N 21:38:23 58° WNW 21:40:09 24° SW
STARLINK-1369 3.3 21:37:19 17° WSW 21:40:10 68° SSE 21:43:57 10° ENE
IRAS Rocket 4.4 21:36:04 18° S 21:40:12 61° WSW 21:45:43 10° NNW
SL-16 R/B 2.7 21:34:36 10° SSE 21:40:44 78° ENE 21:46:57 10° NNW
Cosmos 192 4.4 21:39:28 20° SSW 21:42:57 77° WNW 21:47:57 10° NNE
STARLINK-1372 3.3 21:40:39 16° WSW 21:43:39 70° SSE 21:47:26 10° ENE
Meteor 1-21 Rocket 4.3 21:40:01 19° S 21:44:13 83° E 21:50:01 10° NNE
STARLINK-1246 3.9 21:41:36 10° W 21:45:33 42° SSW 21:49:28 10° SE
STARLINK-1378 3.3 21:43:59 15° WSW 21:47:07 72° SSE 21:50:55 10° ENE
Starlink 7 placeholder 1.7 21:47:41 12° WNW 21:49:27 77° NNE 21:51:25 10° E
Alouette 2 Rocket 3.8 21:43:54 10° NNW 21:49:49 74° W 21:53:02 17° S
STARLINK-1224 4.0 21:46:35 10° W 21:50:29 40° SSW 21:54:22 10° SE
STARLINK-1379 3.3 21:47:21 14° WSW 21:50:37 74° SSE 21:54:25 10° ENE
Cosmos 1656 3.7 21:46:28 18° SSW 21:50:43 88° WNW 21:56:22 10° NNE
FALCON 9 DEB 3.1 21:47:34 10° W 21:51:01 84° N 21:54:29 10° E
STARLINK-1329 3.3 21:48:42 13° WSW 21:52:02 75° SSE 21:55:51 10° ENE
Cosmos-2242 2.9 21:47:57 10° N 21:52:14 88° W 21:55:41 15° S
CZ-4C R/B 3.5 21:48:52 15° SSE 21:52:28 85° WSW 21:56:57 10° NNW
SL-19 R/B 4.3 21:48:10 10° NNE 21:53:41 81° WNW 21:58:12 17° SSW
NOSS 7 (H) 4.3 21:52:49 25° SSW 21:54:22 57° SE 21:57:17 10° NE
Cosmos 1697 Rocket 2.9 21:51:04 18° S 21:55:18 63° ESE 22:00:55 10° NE
STARLINK-1225 4.1 21:51:36 10° W 21:55:27 38° SSW 21:59:18 10° SE
STARLINK-1362 3.3 21:52:07 12° WSW 21:55:37 77° SSE 21:59:25 10° ENE
STARLINK-29 3.1 21:53:32 10° W 21:56:45 75° N 21:59:57 10° E
Cosmos 2084 Rocket 3.6 21:53:10 10° NW 21:57:39 87° NE 22:02:09 10° SE
Cosmos 2227 Rocket 2.9 21:52:53 10° NW 21:58:00 35° WSW 22:01:43 17° SSW
BREEZE-M DEB (TANK) 2.3 21:54:49 10° W 21:58:04 29° SSW 21:59:36 14° SSE
RESURS DK-1 4.3 21:54:50 10° W 21:58:17 25° NW 22:01:45 10° NNE
Cosmos 2298 Rocket 4.4 21:53:21 10° NNW 21:58:38 66° ENE 22:03:55 10° SE
Cosmos 1570 Rocket 4.4 21:54:44 16° S 21:58:49 57° ESE 22:04:00 10° NNE
Cosmos 1812 Rocket 4.4 21:54:55 10° NNW 21:59:03 37° W 22:01:47 18° SSW
STARLINK-1373 3.3 21:55:31 11° WSW 21:59:10 79° SSE 22:03:01 10° ENE
STARLINK-1365 3.3 21:56:33 10° WSW 22:00:19 81° SSE 22:04:10 10° ENE
STARLINK-1230 4.2 21:56:35 10° W 22:00:24 36° SSW 22:04:12 10° SSE
DELTA 2 DEB (DPAF) 4.4 21:57:57 18° S 22:01:07 52° W 22:05:30 10° NNW
Cosmos 372 Rocket 4.1 21:56:13 10° NNW 22:01:22 80° ENE 22:06:32 10° SSE
STARLINK-1390 3.3 21:59:00 10° WSW 22:02:46 81° SSE 22:06:37 10° ENE
Cosmos 1626 4.4 22:01:50 10° WSW 22:04:07 15° WNW 22:06:25 10° NNW
Cosmos 1709 Rocket 4.0 21:59:31 16° SSW 22:04:27 78° W 22:10:40 10° N
STARLINK-1243 4.2 22:01:37 10° W 22:05:22 33° SW 22:09:06 10° SSE
USA 81 4.2 22:01:48 17° SSW 22:05:51 67° W 22:11:09 10° N
ATLAS CENTAUR R/B 3.7 22:03:22 10° WNW 22:06:33 21° NNW 22:09:36 10° NNE
Cosmos 2285 Rocket 4.1 22:02:19 10° NNW 22:08:37 62° WSW 22:14:49 10° S
STARLINK-1236 4.3 22:06:36 10° W 22:10:18 32° SW 22:13:59 10° SSE
Cosmos 2208 Rocket 4.4 22:06:38 15° S 22:10:55 60° ESE 22:16:13 10° NNE
Cosmos 1825 Rocket 3.5 22:07:45 17° SSW 22:11:03 84° WNW 22:15:26 10° N
Cosmos 1602 Rocket 4.5 22:10:15 15° SW 22:13:19 36° WNW 22:17:20 10° N
BREEZE M DEB (TANK) 3.5 22:14:01 20° SSW 22:14:13 20° SSW 22:17:15 10° SSE
SL-16 R/B 4.3 22:10:54 10° SE 22:14:35 18° E 22:18:17 10° ENE
ATLAS 2AS CENTAUR R/B 4.3 22:08:19 10° W 22:15:48 41° NNW 22:23:01 10° NE
Cosmos 841 Rocket 3.7 22:13:11 15° SSW 22:17:32 70° ESE 22:22:43 10° NNE
STARLINK-1269 4.5 22:16:38 10° W 22:20:11 28° SW 22:23:45 10° SSE
ADEOS II 3.3 22:15:19 10° NNE 22:20:13 38° E 22:25:05 10° SSE
UNK 3.9 22:16:13 13° S 22:20:14 57° W 22:24:47 10° NNW
SL-08 R/B 4.4 22:16:14 10° SE 22:20:38 44° ENE 22:25:01 10° N
Meteor 1-11 4.4 22:18:57 11° S 22:24:17 71° E 22:29:52 10° NNE
ERS-2 4.3 22:21:46 10° ESE 22:24:54 27° ENE 22:28:03 10° N
Cosmos 1328 3.9 22:21:58 16° SSW 22:25:04 67° WNW 22:29:04 10° N
FALCON 9 R/B 4.4 22:19:35 13° SW 22:25:11 26° S 22:40:33 10° SE
STARLINK 1040 3.5 22:25:19 20° SSW 22:26:27 28° SSE 22:28:44 10° E
ATLAS 5 CENTAUR R/B 3.7 22:27:07 10° NW 22:28:22 14° N 22:29:46 10° NE
Cosmos 1763 Rocket 3.8 22:25:32 14° SW 22:29:53 58° WNW 22:34:55 10° NNE
STARLINK-52 3.1 22:29:24 10° W 22:32:38 77° N 22:35:51 10° E
CBERS-1 4.5 22:28:33 10° NNE 22:33:38 58° ESE 22:38:41 10° S
SL-4 R/B 2.3 22:30:06 10° W 22:34:57 76° SSW 22:39:37 10° ESE
STARLINK-1320 3.0 22:32:46 10° W 22:35:53 78° N 22:39:01 10° E
ERBS 3.1 22:33:12 10° WNW 22:36:07 28° SW 22:39:03 10° SSE
STARLINK-1322 3.0 22:33:05 10° W 22:36:12 78° N 22:39:20 10° E
STARLINK-1324 3.0 22:33:26 10° W 22:36:34 78° N 22:39:42 10° E
STARLINK-1294 3.0 22:33:44 10° W 22:36:52 78° N 22:40:01 10° E
STARLINK-1261 3.0 22:34:04 10° W 22:37:12 78° N 22:40:20 10° E
STARLINK-1325 3.0 22:34:26 10° W 22:37:33 78° N 22:40:42 10° E
STARLINK-1338 3.4 22:34:05 10° W 22:37:52 83° N 22:41:42 10° E
STARLINK-1333 3.0 22:34:48 10° W 22:37:55 78° N 22:41:04 10° E
STARLINK-1334 3.0 22:35:07 10° W 22:38:15 78° N 22:41:22 10° E
Iridium 2 3.9 22:34:31 10° N 22:38:17 69° E 22:42:03 10° SSE
STARLINK-1326 3.0 22:35:28 10° W 22:38:35 78° N 22:41:44 10° E
STARLINK-1323 3.0 22:35:46 10° W 22:38:54 78° N 22:42:02 10° E
STARLINK-1349 3.0 22:36:08 10° W 22:39:16 78° N 22:42:24 10° E
STARLINK-1336 3.0 22:36:28 10° W 22:39:36 77° N 22:42:44 10° E
STARLINK-1331 3.0 22:36:48 10° W 22:39:56 77° N 22:43:04 10° E
STARLINK-1344 3.0 22:37:08 10° W 22:40:15 77° N 22:43:24 10° E
STARLINK-1343 3.0 22:37:28 10° W 22:40:36 77° N 22:43:44 10° E
STARLINK-1346 3.0 22:37:47 10° W 22:40:57 77° N 22:44:07 10° E
Resurs 1-4 Rocket 2.2 22:35:46 10° NNE 22:41:03 69° WNW 22:46:05 11° SSW
STARLINK-1328 3.0 22:38:10 10° W 22:41:17 77° N 22:44:25 10° E
CZ-4C R/B 2.3 22:36:20 11° SW 22:41:20 80° NW 22:47:42 10° NE
STARLINK-1354 3.0 22:38:29 10° W 22:41:37 77° N 22:44:45 10° E
STARLINK-1347 3.0 22:38:50 10° W 22:41:58 77° N 22:45:06 10° E
STARLINK-1357 3.0 22:39:11 10° W 22:42:18 77° N 22:45:27 10° E
STARLINK-1335 3.0 22:39:31 10° W 22:42:39 77° N 22:45:47 10° E
STARLINK-1327 3.0 22:39:50 10° W 22:42:59 77° N 22:46:06 10° E
STARLINK-1340 3.0 22:40:12 10° W 22:43:19 77° N 22:46:27 10° E
STARLINK-1356 3.0 22:40:32 10° W 22:43:39 77° N 22:46:47 10° E
STARLINK-1345 3.0 22:40:50 10° W 22:43:58 76° N 22:47:06 10° E
STARLINK-1355 3.0 22:41:10 10° W 22:44:18 76° N 22:47:26 10° E
STARLINK-1371 3.4 22:40:44 10° W 22:44:30 82° N 22:48:17 10° E
STARLINK-1321 3.0 22:41:33 10° W 22:44:41 76° N 22:47:49 10° E
STARLINK-1358 3.0 22:41:53 10° W 22:45:01 76° N 22:48:09 10° E
SJ 16-02 3.4 22:43:09 10° WNW 22:45:02 13° W 22:46:55 10° WSW
STARLINK-1332 3.0 22:42:13 10° W 22:45:21 76° N 22:48:29 10° E
STARLINK-1348 3.0 22:42:31 10° W 22:45:39 76° N 22:48:47 10° E
STARLINK-1330 3.0 22:42:54 10° W 22:46:01 76° N 22:49:09 10° E
STARLINK-1363 3.0 22:43:15 10° W 22:46:22 76° N 22:49:30 10° E
STARLINK-1337 3.0 22:43:35 10° W 22:46:43 76° N 22:49:50 10° E
STARLINK-26 4.4 22:44:17 13° SSW 22:46:46 28° SSE 22:49:46 10° E
STARLINK-1342 3.0 22:43:54 10° W 22:47:02 76° N 22:50:10 10° E
Cosmos 1703 4.1 22:43:53 12° SW 22:47:09 37° WNW 22:50:50 10° N
STARLINK-1364 3.0 22:44:15 10° W 22:47:23 76° N 22:50:31 10° E
STARLINK-1376 3.0 22:44:35 10° W 22:47:43 76° N 22:50:50 10° E
STARLINK-1341 3.5 22:44:03 10° W 22:47:50 81° N 22:51:38 10° E
STARLINK-1360 3.0 22:44:55 10° W 22:48:03 76° N 22:51:11 10° E
STARLINK-1361 3.0 22:45:16 10° W 22:48:23 76° N 22:51:31 10° E
STARLINK-1367 3.0 22:45:34 10° W 22:48:44 76° N 22:51:53 10° E
STARLINK-1366 3.0 22:45:57 10° W 22:49:05 76° N 22:52:13 10° E
Cosmos 2369 4.0 22:43:44 11° SW 22:49:06 64° NW 22:54:45 10° NNE
Cosmos 2074 Rocket 4.1 22:42:56 10° S 22:49:15 86° W 22:55:35 10° N
H-2A R/B 3.5 22:45:16 10° SE 22:49:26 43° ENE 22:53:42 10° N
Cosmos 1980 Rocket 2.2 22:45:27 11° SSW 22:50:50 86° ESE 22:56:32 10° NNE
GP-B 3.7 22:46:40 10° N 22:50:51 42° W 22:54:56 11° SSW
STARLINK-1339 3.4 22:47:20 10° W 22:50:58 80° N 22:54:36 10° E
STARLINK-1374 3.5 22:47:24 10° W 22:51:10 80° N 22:54:58 10° E
Cosmos 1869 3.3 22:49:02 10° N 22:52:56 80° ENE 22:56:48 10° SSE
STARLINK-43 3.6 22:50:02 11° SW 22:53:24 51° SSE 22:56:59 10° ENE
CZ-2D R/B 2.4 22:49:34 10° N 22:54:43 56° WNW 22:59:47 10° SW
IRS-1D 3.7 22:51:29 10° NNE 22:56:51 87° ESE 23:02:05 10° SSW
STARLINK-1377 3.5 22:54:07 10° W 22:57:55 79° N 23:01:44 10° E
Cosmos 2360 4.4 22:53:49 10° SW 22:59:26 69° NW 23:05:10 10° NNE
Cosmos 1400 Rocket 3.7 22:56:51 10° NNW 23:00:35 33° W 23:04:17 10° SSW
STARLINK-1353 3.5 22:57:33 10° W 23:01:20 79° N 23:05:07 10° E
STARLINK-60 2.9 22:59:51 10° WNW 23:03:02 67° SSW 23:06:13 10° ESE
STARLINK-1309 4.5 23:02:02 10° SSW 23:04:33 23° SE 23:07:06 10° E
STARLINK-1375 3.5 23:00:57 10° W 23:04:45 78° N 23:08:33 10° E
Cosmos 2058 3.8 23:00:47 10° S 23:04:50 50° E 23:08:56 10° NNE
COBE Rocket 4.2 23:00:04 10° SSE 23:05:06 81° ENE 23:10:18 10° NNW
STARLINK-1282 4.5 23:02:53 10° SSW 23:05:25 23° SE 23:07:58 10° E
STARLINK-1313 4.3 23:03:51 10° SSW 23:06:30 25° SSE 23:09:09 10° E
STARLINK-1279 4.3 23:04:46 10° SSW 23:07:25 26° SSE 23:10:05 10° E
STARLINK-1352 3.4 23:04:21 10° W 23:08:00 77° N 23:11:39 10° E
STARLINK-1298 4.4 23:05:31 10° SSW 23:08:06 24° SE 23:10:41 10° E
STARLINK-1350 3.5 23:04:22 10° W 23:08:09 78° N 23:11:57 10° E
Cosmos 2184 Rocket 4.1 23:02:28 10° SSW 23:08:37 68° WNW 23:14:47 10° N
STARLINK-1293 4.4 23:06:25 10° SSW 23:09:01 24° SE 23:11:37 10° E
Lacrosse 4 Rocket 3.3 23:07:07 10° WNW 23:09:08 13° WSW 23:11:07 10° SW
STARLINK-42 4.0 23:06:29 10° SW 23:09:23 32° SSE 23:12:18 10° E
Cosmos 2263 Rocket 2.2 23:04:13 10° NW 23:09:44 60° WSW 23:15:12 10° SSE
Cosmos 1076 Rocket 4.3 23:05:35 10° S 23:09:50 54° E 23:14:07 10° NNE
OPS 8737 4.4 23:06:53 10° NW 23:10:03 67° SW 23:14:09 10° SE
STARLINK-1255 4.4 23:08:10 10° SSW 23:10:48 25° SE 23:13:26 10° E
ARIANE 5 R/B 2.9 23:08:28 10° NNE 23:13:30 62° ESE 23:18:26 10° S
STARLINK-1272 4.5 23:11:10 10° SSW 23:14:14 28° SE 23:17:19 10° E
Cosmos 1842 Rocket 4.0 23:10:43 10° NNW 23:15:02 48° W 23:19:19 10° SSW
STARLINK-1368 3.6 23:11:17 10° W 23:15:05 78° N 23:18:54 10° E
AQUA 4.4 23:11:06 10° N 23:15:40 47° WNW 23:20:14 10° SW
STARLINK-1207 4.4 23:13:39 10° SSW 23:16:45 29° SSE 23:19:52 10° E
STARLINK-80 4.4 23:13:39 10° SSW 23:17:07 34° SSE 23:20:34 10° E
Cosmos 1408 4.0 23:14:00 10° SSE 23:17:25 36° E 23:20:51 10° NNE
STARLINK-1369 3.6 23:14:45 10° W 23:18:34 78° N 23:22:22 10° E
STARLINK-1266 4.4 23:16:12 10° SSW 23:19:19 30° SSE 23:22:27 10° E
Cosmos 540 Rocket 4.1 23:15:29 10° SW 23:20:24 45° WNW 23:25:21 10° NNE
